SB KEPS @ AMSAT $ORB10230.N 2Line Orbital Elements 10230.AMSAT
HR AMSAT ORBITAL ELEMENTS FOR AMATEUR SATELLITES IN NASA FORMAT FROM WA5QGD FORT WORTH,TX August 18, 2010 Send Subscribe/unsubscribe to KEPS at http://www.amsat.org/mailman/listinfo/keps BID: ORB10230.N
DECODE 2-LINE ELSETS WITH THE FOLLOWING KEY: 1 AAAAAU 00 0 0 BBBBB.BBBBBBBB .CCCCCCCC 00000-0 00000-0 0 DDDZ 2 AAAAA EEE.EEEE FFF.FFFF GGGGGGG HHH.HHHH III.IIII JJ.JJJJJJJJKKKKKZ KEY: A-CATALOGNUM B-EPOCHTIME C-DECAY D-ELSETNUM E-INCLINATION F-RAAN G-ECCENTRICITY H-ARGPERIGEE I-MNANOM J-MNMOTION K-ORBITNUM Z-CHECKSUM
TO ALL RADIO AMATEURS BT
AO-07 1 07530U 74089B 10230.61116324 -.00000027 00000-0 10000-3 0 8569 2 07530 101.4010 244.0552 0011679 150.3373 209.8361 12.53579270636276 FO-29 1 24278U 96046B 10230.88902293 .00000019 00000-0 57945-4 0 3757 2 24278 098.5162 051.3533 0350457 321.3554 036.2973 13.52952142691586 SO-33 1 25509U 98061B 10229.20731480 .00000150 00000-0 18988-4 0 07761 2 25509 031.4297 163.4491 0353567 103.5362 260.4901 14.28323975616780 RS-22 1 27939U 03042A 10230.68553503 .00000170 00000-0 41500-4 0 4627 2 27939 097.8831 093.4933 0012767 218.8032 141.2252 14.63443718368090 VO-52 1 28650U 05017B 10230.79943791 -.00000362 00000-0 -39173-4 0 5760 2 28650 097.6873 281.7750 0028408 072.5614 287.9076 14.81790206285967 SO-67 1 35870U 09049F 10230.88361234 .00000686 00000-0 33935-4 0 219 2 35870 097.3264 278.3450 0001600 216.8094 256.9864 15.21006179 50986 HO-68 1 36122U 09072B 10230.65081566 -.00000045 00000-0 00000 0 0 5899 2 36122 100.4635 290.4335 0007318 192.1137 167.9806 13.16281651 32437 UO-11 1 14781U 84021B 10229.35089510 -.00000021 00000-0 43121-5 0 03175 2 14781 098.0499 281.2611 0009916 045.8520 314.3501 14.79825238420857 AO-16 1 20439U 90005D 10230.38134572 -.00000000 00000-0 15427-4 0 9726 2 20439 098.3372 185.8564 0010968 347.4249 012.6670 14.31870320 74288 LO-19 1 20442U 90005G 10229.81014937 -.00000032 00000-0 37073-5 0 08836 2 20442 098.2985 190.8603 0011612 343.2080 016.8729 14.32100346074371 AO-27 1 22825U 93061C 10230.38694196 .00000017 00000-0 23565-4 0 6046 2 22825 098.4891 176.7407 0009339 085.1833 275.0428 14.29304930880935 IO-26 1 22826U 93061D 10229.81133248 .00000013 00000-0 21727-4 0 3411 2 22826 098.4825 176.7579 0009949 082.9815 277.2512 14.29561845880966 GO-32 1 25397U 98043D 10230.46172923 .00000141 00000-0 80578-4 0 2610 2 25397 098.3146 234.4873 0002272 086.7806 273.3642 14.23183873628900 NO-44 1 26931U 01043C 10230.74859767 -.00000139 00000-0 -21777-4 0 5368 2 26931 067.0524 042.7879 0005069 266.1758 093.8735 14.29606802463690 SO-50 1 27607U 02058C 10229.30738880 .00000102 00000-0 37873-4 0 02491 2 27607 064.5579 170.8680 0038130 049.2539 311.1880 14.71565172411374 CO-55 1 27844U 03031E 10230.49311076 .00000042 00000-0 39675-4 0 9157 2 27844 098.7104 238.5758 0010311 357.2890 002.8239 14.20723720369936 CO-57 1 27848U 03031J 10230.53181900 .00000043 00000-0 40313-4 0 8631 2 27848 098.7160 237.7207 0010214 001.2292 358.8908 14.20515346369891 AO-51 1 28375U 04025K 10229.47447537 .00000022 00000-0 19600-4 0 07522 2 28375 098.0662 219.4935 0083225 272.0608 087.1053 14.40694716322335 GENESAT1 1 29655U 06058C 10216.61700559 .10637092 69904-5 33715-3 0 2265 2 29655 040.0059 067.3006 0005079 297.8744 064.7087 16.44862838207776 CP3 1 31129U 07012N 10230.49984894 .00000161 00000-0 47523-4 0 6537 2 31129 097.9353 266.7236 0103609 041.1302 319.7640 14.52292469176903 CO-65 1 32785U 08021C 10230.22665662 .00000592 00000-0 81758-4 0 7602 2 32785 097.8907 294.2807 0016142 083.0136 277.2888 14.81700658124676 KKS-1 1 33493U 09002B 10230.68085282 .00000528 00000-0 74993-4 0 7683 2 33493 098.0917 350.7284 0018844 301.5994 058.3382 14.81067431 84739 SOHLA-1 1 33496U 09002E 10229.85142797 -.00000017 00000-0 53412-5 0 01815 2 33496 098.0614 338.1405 0006918 016.7129 343.4281 14.69508988083935 TISAT-1 1 36799U 10035E 10229.77494666 .00000119 00000-0 22919-4 0 00557 2 36799 098.1427 289.4499 0015969 172.1626 187.9811 14.80143140005429 STUDSAT 1 36801U 10035G 10229.92441157 .00000957 00000-0 13480-3 0 00995 2 36801 098.1451 289.5640 0014052 159.2964 200.8819 14.79590841005449 NOAA-10 1 16969U 86073A 10229.69749705 -.00000021 00000-0 93286-5 0 01715 2 16969 098.6537 258.0786 0013066 034.8866 325.3184 14.27424040244350 NOAA-11 1 19531U 88089A 10229.83255473 -.00000241 00000-0 -10231-3 0 01837 2 19531 098.7676 317.8066 0011471 336.9709 023.0940 14.14931931129855 NOAA-12 1 21263U 91032A 10229.97211890 .00000028 00000-0 30897-4 0 06741 2 21263 098.7649 243.1248 0012449 351.9668 008.1316 14.25648944001200 MET-3/5 1 21655U 91056A 10230.70257369 .00000051 00000-0 10000-3 0 8916 2 21655 082.5539 264.4671 0013269 186.5737 173.5197 13.17021515913902 MET-2/21 1 22782U 93055A 10229.97495912 -.00000005 00000-0 -17507-4 0 08601 2 22782 082.5470 203.4179 0021037 226.5813 133.3607 13.83645747856623 OKEAN-4 1 23317U 94066A 10229.79595068 .00000144 00000-0 14780-4 0 3148 2 23317 082.5412 296.3586 0023502 042.4294 317.8723 14.82848301855587 NOAA-14 1 23455U 94089A 10229.85464150 -.00000019 00000-0 13495-4 0 01647 2 23455 098.8758 310.1613 0010267 062.8323 297.3899 14.13791522806210 NOAA-15 1 25338U 98030A 10230.37157681 -.00000024 00000-0 81786-5 0 4891 2 25338 098.6238 216.1962 0009605 253.3491 106.6655 14.24848425637606 RESURS 1 25394U 98043A 10229.82078672 -.00000005 00000-0 15436-4 0 5806 2 25394 098.3045 244.5449 0002491 054.1532 305.9873 14.24207838629126 FENGYUN1 1 25730U 99025A 10230.83096284 .00000459 00000-0 29297-3 0 1158 2 25730 098.7877 194.1593 0023421 087.1532 273.2330 14.08249695580501 OKEAN-0 1 25860U 99039A 10230.47667167 .00000056 00000-0 15868-4 0 759 2 25860 097.8383 201.0782 0000632 093.2857 266.8415 14.73655656596073 NOAA-16 1 26536U 00055A 10230.34612962 -.00000192 00000-0 -78382-4 0 9672 2 26536 099.1697 249.2777 0010777 158.6253 201.5382 14.12570925510604 NOAA-17 1 27453U 02032A 10229.75134905 .00000058 00000-0 43321-4 0 09592 2 27453 098.4253 277.7009 0011016 321.6063 038.4345 14.24181879423467 NOAA-18 1 28654U 05018A 10229.76393479 .00000448 00000-0 27199-3 0 04454 2 28654 098.9526 175.8605 0013484 238.7114 121.2742 14.11381964270123 NOAA-19 1 33591U 09005A 10229.76544613 .00000090 00000-0 73804-4 0 06436 2 33591 098.7901 170.5845 0015012 113.0771 247.2025 14.11074991078594 HUBBLE 1 20580U 90037B 10230.21707886 .00000508 00000-0 25988-4 0 6298 2 20580 028.4680 194.9063 0003678 141.1071 218.9781 15.01017702914088 ISS 1 25544U 98067A 10230.69424966 .00013402 00000-0 10514-3 0 7297 2 25544 051.6460 270.7321 0005761 240.7464 217.5417 15.71898830673308 CO-58 1 28895U 05043F 10229.18613557 .00000072 00000-0 24424-4 0 06608 2 28895 098.0048 111.6152 0019135 094.3512 265.9862 14.59921001255881 FALCON 1 30776U 07006E 10230.56030999 .00000937 00000-0 69889-4 0 8940 2 30776 035.4341 025.5858 0001820 335.1792 024.8834 15.03770964189457 MAST 1 31126U 07012K 10230.44935067 .00000091 00000-0 30741-4 0 9402 2 31126 097.9320 269.2274 0095248 033.3914 327.3246 14.53611594177100 CAPE1 1 31130U 07012P 10230.63007204 -.00000028 00000-0 41540-5 0 9615 2 31130 097.9337 266.6847 0103617 041.0230 319.8690 14.52210389176729 COMPASS 1 32787U 08021E 10230.28859440 .00000685 00000-0 92985-4 0 7527 2 32787 097.8902 294.1786 0016999 084.2133 276.0996 14.81941063124694 AAUSAT2 1 32788U 08021F 10230.42062069 .00000648 00000-0 87978-4 0 7443 2 32788 097.8900 294.4507 0016747 083.6990 276.6123 14.82087270124726 DO-64 1 32789U 08021G 10229.68032554 .00000896 00000-0 11865-3 0 07644 2 32789 097.8961 294.2645 0016775 084.6631 275.6536 14.82260852124613 CO-66 1 32791U 08021J 10230.65740715 .00000032 00000-0 10732-4 0 7466 2 32791 097.8912 294.5487 0017253 080.6674 279.6491 14.81713513124704 RS-30 1 32953U 08025A 10230.74996604 .00000010 00000-0 00000 0 0 9628 2 32953 082.5054 350.7712 0018147 329.1960 030.8056 12.43007232101518 TACSAT-3 1 35001U 09028A 10229.95824531 .00006386 00000-0 14886-3 0 03671 2 35001 040.4544 202.9115 0020116 105.7772 254.5283 15.42354096070174 PHARMSAT 1 35002U 09028B 10229.30945813 .00005349 00000-0 12349-3 0 03487 2 35002 040.4682 204.6113 0022769 105.5480 254.7852 15.42814715070099 HAWKSAT1 1 35003U 09028C 10229.27978367 .00012117 00000-0 24088-3 0 03679 2 35003 040.4576 197.6807 0020616 123.9326 236.3453 15.46476495070170 CP6 1 35004U 09028D 10229.95007333 .00014672 00000-0 28021-3 0 03726 2 35004 040.4579 192.1794 0019585 133.7143 226.5363 15.47540830070287 AEROCUB3 1 35005U 09028E 10229.94384004 .00049528 00000-0 69865-3 0 04134 2 35005 040.4681 186.2070 0018201 159.7530 200.4096 15.55530400070358 CASTOR 1 35694U 09038F 10230.44082147 .07179566 12689-4 99310-4 0 6559 2 35694 051.5930 222.0149 0004218 308.0851 053.0105 16.48877011 61107 METEOR-M 1 35865U 09049A 10230.76503089 .00000176 00000-0 10000-3 0 5717 2 35865 098.7533 284.1001 0002036 165.2857 194.8318 14.21831251 47615 RS-38 1 35869U 09049E 10230.80009872 .00000177 00000-0 10000-3 0 5842 2 35869 098.7513 284.1711 0004375 175.0470 185.0716 14.21986965 47621 /EX
participants (1)
-
Ray Hoad